Content
SEND FEEDBACK

Daily
Averages
Monthly
Summary
United Kingdom

PENKETH, ENGLAND


Home > Europe > United Kingdom > England
Elevation: 89 feet     Latitude: 53 22N     Longitude: 002 39W

WEATHER
 
SELECT A DAY
Number of Records: 284,284;   Date Range: 7/1/96 - 8/18/14
 
SHARE

PRINT THIS DATA

[ ← Previous Day ]
WEATHER ALMANAC - SEPTEMBER 28, 2013
[ Next Day → ]
[ °C ]   °F
Weather ElementAverageHighLow
Temperature57.7 °F66.2 °F (2:20 pm)50 °F (3:50 am)
Dewpoint49 °F53.6 °F (10:50 am)46.4 °F (3:20 am)
Humidity74 %94 % (3:50 am)49 % (2:50 pm)
Barometer29.84 in29.92 in (12:50 am)29.77 in (5:20 pm)
Wind Speed10.5 mph15 mph (11:50 am)
Weather ElementAverage
Visibility3.8 mi
Wind DirectionESE (103.2 °)

Weather ElementTotal
Precipitation---
Heating Degree Days6.9 (Base 65)
Growing Degree Days8.1 (Base 50)
Averaged from 47 records on September 28, 2013
WEATHER CONDITIONS BREAKOUT
WIND DIRECTION BREAKOUT
WEATHER BY HOUR - SEPTEMBER 28, 2013
[ °C ]   °F
Local TimeTemperatureDewpointHumidityBarometerVisibilityWind DirectionWind SpeedGust SpeedPrecipitationEventsConditions
12:50 AM55.4 °F48.2 °F77 %29.92 inESE (110°)8.1 mphClear
1:20 AM55.4 °F48.2 °F77 %29.92 inSE (140°)8.1 mphClear
1:50 AM53.6 °F48.2 °F82 %29.92 inSE (140°)6.9 mphClear
2:20 AM53.6 °F48.2 °F82 %29.92 inSE (130°)9.2 mphClear
2:50 AM53.6 °F48.2 °F82 %29.92 inESE (110°)9.2 mphClear
3:20 AM51.8 °F46.4 °F82 %29.89 inEast (100°)9.2 mphClear
3:50 AM50.0 °F48.2 °F94 %29.89 inEast (100°)9.2 mphClear
4:20 AM51.8 °F48.2 °F88 %29.89 inEast (100°)10.4 mphClear
4:50 AM51.8 °F48.2 °F88 %29.86 inESE (110°)9.2 mphClear
5:20 AM50.0 °F46.4 °F87 %29.86 inEast (100°)8.1 mphClear
5:50 AM50.0 °F46.4 °F87 %29.86 inEast (100°)9.2 mphClear
6:20 AM51.8 °F48.2 °F88 %29.86 in5.6 miESE (110°)8.1 mph
6:50 AM50.0 °F48.2 °F94 %29.86 in3.7 miEast (100°)9.2 mph
7:20 AM51.8 °F48.2 °F88 %29.86 in3.7 miESE (120°)6.9 mph
7:50 AM50.0 °F48.2 °F94 %29.86 in3.7 miSE (130°)5.8 mphScattered Clouds
8:20 AM51.8 °F48.2 °F88 %29.86 in3.1 miESE (110°)6.9 mphHaze
8:50 AM53.6 °F50.0 °F88 %29.86 in3.1 miESE (110°)9.2 mphHaze
9:20 AM53.6 °F51.8 °F94 %29.86 in3.1 miESE (120°)8.1 mphHaze
9:50 AM55.4 °F51.8 °F88 %29.86 in3.1 miSE (140°)5.8 mphHaze
10:20 AM57.2 °F51.8 °F82 %29.86 in3.1 miESE (110°)6.9 mphHaze
10:50 AM59.0 °F53.6 °F82 %29.86 in3.7 miESE (110°)10.4 mphScattered Clouds
11:20 AM60.8 °F51.8 °F72 %29.86 in3.7 miEast (100°)12.7 mphPartly Cloudy
11:50 AM60.8 °F51.8 °F72 %29.86 in4.3 miESE (110°)15.0 mphPartly Cloudy
12:20 PM62.6 °F51.8 °F68 %29.83 in4.3 miEast (100°)13.8 mph
12:50 PM64.4 °F51.8 °F64 %29.83 in5.0 miESE (110°)12.7 mph
1:20 PM64.4 °F50.0 °F59 %29.83 inESE (110°)13.8 mphClear
1:50 PM64.4 °F48.2 °F56 %29.83 inEast (100°)12.7 mphClear
2:20 PM66.2 °F48.2 °F52 %29.80 inESE (110°)13.8 mphClear
2:50 PM66.2 °F46.4 °F49 %29.80 inEast (100°)15.0 mphClear
3:20 PM66.2 °F50.0 °F56 %29.80 inEast (90°)13.8 mphClear
3:50 PM66.2 °F48.2 °F52 %29.80 inEast (100°)12.7 mphClear
4:20 PM64.4 °F48.2 °F56 %29.80 inESE (110°)12.7 mphClear
4:50 PM64.4 °F48.2 °F56 %29.80 inEast (100°)12.7 mphClear
5:20 PM62.6 °F48.2 °F59 %29.77 inEast (100°)11.5 mphClear
5:50 PM62.6 °F50.0 °F63 %29.77 inESE (110°)10.4 mphClear
6:20 PM62.6 °F48.2 °F59 %29.77 inEast (90°)10.4 mphClear
6:50 PM60.8 °F46.4 °F59 %29.77 inEast (80°)10.4 mphClear
7:20 PM59.0 °F48.2 °F67 %29.77 inEast (80°)10.4 mphClear
7:50 PM60.8 °F50.0 °F68 %29.80 inENE (70°)11.5 mphClear
8:20 PM60.8 °F50.0 °F68 %29.80 inEast (80°)12.7 mphClear
8:50 PM60.8 °F50.0 °F68 %29.80 inEast (80°)11.5 mphClear
9:20 PM59.0 °F50.0 °F72 %29.80 inEast (80°)11.5 mphClear
9:50 PM59.0 °F50.0 °F72 %29.80 inEast (80°)11.5 mphClear
10:20 PM57.2 °F50.0 °F77 %29.83 inEast (90°)8.1 mphClear
10:50 PM57.2 °F48.2 °F72 %29.83 inEast (90°)12.7 mphClear
11:20 PM55.4 °F46.4 °F72 %29.83 inEast (90°)13.8 mphClear
11:50 PM53.6 °F46.4 °F77 %29.83 inEast (90°)10.4 mphClear
Hourly data recorded from EGGP, located miles away from Penketh, England







STORIES FROM OUR PARTNERS